Pittsfield, MA

5:44 AM EST on December 13, 2019 (GMT -0500)
Pittsfield Municipal

Weather History for KPSF - November, 2019

Change the Weather History Date:

Saturday, November 16, 2019

  Actual Average Record
Temperature  
Mean Temperature 26 °F 38 °F  
Max Temperature 35 °F 47 °F 66 °F (2006)
Min Temperature 17 °F 29 °F 4 °F (1933)
Degree Days  
Heating Degree Days 39 27  
Month to date heating degree days 499 397  
Since 1 July heating degree days 1102 1233  
Cooling Degree Days 0 0  
Month to date cooling degree days 0 0  
Year to date cooling degree days 416 290  
Moisture  
Dew Point 4 °F    
Average Humidity 42    
Maximum Humidity 69    
Minimum Humidity 25    
Precipitation  
Precipitation 0.00 in 0.13 in 1.85 in (1925)
Month to date precipitation 1.16 2.02  
Year to date precipitation 40.72 40.47  
Sea Level Pressure  
Sea Level Pressure 30.44 in    
Wind  
Wind Speed 7 mph ()    
Max Wind Speed 21 mph    
Max Gust Speed 31 mph    
Visibility 10.0 miles    
Events      
T = Trace of Precipitation, MM = Missing Value Source: Averaged Metar Reports

Daily Weather History Graph

Daily Weather History Graph

Search for Another Location

Airport or City:

Astronomy

Nov. 16, 2019 Rise Set
Actual Time 6:45 AM EST 4:30 PM EST
Civil Twilight 6:14 AM EST 5:00 PM EST
Nautical Twilight 5:40 AM EST 5:34 PM EST
Astronomical Twilight 5:07 AM EST 6:07 PM EST
Moon 7:58 PM EST (11/16) 10:38 AM EST (11/16)
Length of Visible Light 10h 45m
Length of Day
9h 45m
Waning Gibbous, 82% of the Moon is Illuminated
Nov 16
Waning Gibbous
Nov 19
Last Quarter
Nov 26
New
Dec 4
First Quarter
Dec 12
Full

Hourly Weather History & Observations

Time (EST) Temp. Windchill Dew Point Humidity Pressure Visibility Wind Dir Wind Speed Gust Speed Precip Events Conditions
12:54 AM 32.0 °F 22.1 °F 19.0 °F 59% 30.24 in 10.0 mi North 13.8 mph 21.9 mph N/A   Overcast
1:54 AM 28.9 °F 19.2 °F 10.9 °F 47% 30.27 in 10.0 mi NNW 11.5 mph 18.4 mph N/A   Clear
2:54 AM 26.1 °F 17.6 °F 6.1 °F 43% 30.30 in 10.0 mi North 8.1 mph - N/A   Clear
3:54 AM 25.0 °F 14.2 °F 6.1 °F 45% 30.32 in 10.0 mi NNE 11.5 mph 19.6 mph N/A   Clear
4:54 AM 23.0 °F 11.1 °F -2.9 °F 32% 30.37 in 10.0 mi North 12.7 mph 18.4 mph N/A   Clear
5:54 AM 21.9 °F 12.5 °F -0.0 °F 38% 30.40 in 10.0 mi North 8.1 mph - N/A   Clear
6:54 AM 21.0 °F 13.4 °F 3.9 °F 48% 30.45 in 10.0 mi Variable 5.8 mph - N/A   Clear
7:54 AM 21.9 °F 13.4 °F 5.0 °F 48% 30.49 in 10.0 mi NNE 6.9 mph - N/A   Clear
8:54 AM 24.1 °F 17.0 °F 5.0 °F 44% 30.50 in 10.0 mi Variable 5.8 mph - N/A   Clear
9:54 AM 28.0 °F 21.7 °F 3.9 °F 36% 30.49 in 10.0 mi North 5.8 mph - N/A   Clear
10:54 AM 30.0 °F 23.2 °F 1.9 °F 30% 30.49 in 10.0 mi North 6.9 mph - N/A   Clear
11:54 AM 32.0 °F 24.2 °F 1.0 °F 27% 30.47 in 10.0 mi NNW 9.2 mph - N/A   Clear
12:54 PM 34.0 °F 27.2 °F 1.9 °F 26% 30.45 in 10.0 mi NNW 8.1 mph - N/A   Clear
1:54 PM 34.0 °F 27.2 °F 1.9 °F 26% 30.43 in 10.0 mi NE 8.1 mph - N/A   Clear
2:54 PM 33.1 °F 26.1 °F 3.0 °F 28% 30.44 in 10.0 mi NNW 8.1 mph - N/A   Clear
3:54 PM 30.9 °F 24.3 °F 5.0 °F 33% 30.45 in 10.0 mi NNW 6.9 mph - N/A   Clear
4:54 PM 26.1 °F 21.9 °F 6.1 °F 43% 30.48 in 10.0 mi WNW 3.5 mph - N/A   Clear
5:54 PM 26.1 °F - 6.1 °F 43% 30.49 in 10.0 mi Calm Calm - N/A   Clear
6:54 PM 23.0 °F 14.7 °F 3.0 °F 42% 30.50 in 10.0 mi North 6.9 mph - N/A   Clear
7:54 PM 21.9 °F - 1.0 °F 40% 30.51 in 10.0 mi Calm Calm - N/A   Clear
8:54 PM 21.0 °F - 3.0 °F 46% 30.50 in 10.0 mi Calm Calm - N/A   Clear
9:54 PM 18.0 °F - 5.0 °F 57% 30.50 in 10.0 mi Calm Calm - N/A   Clear
10:54 PM 17.1 °F - 5.0 °F 59% 30.48 in 10.0 mi Calm Calm - N/A   Clear
11:54 PM 18.0 °F 12.7 °F 5.0 °F 57% 30.46 in 10.0 mi ENE 3.5 mph - N/A   Clear